TIME,DELAY(SENSOR),PRES,OXYGEN,RAWTEMP,T(OPTODE),TCPHASE,FLUOR,BETA(BETA700),BETA(BETA412),BETA(BETA440),CDOM,C(CSC),ED(ED412.40),ED(ED444.00),ED(ED489.70),ED(ED554.30),LU(LU411.80),LU(LU443.40),LU(LU489.60),LU(LU554.10),COMP,TILTX,TILTY,CHECK
1356580050,5811,877.3900146484375000,46.6638908386230500,666.1040039062500000,4.4268112182617190,54.0887184143066400,52,102,85,79,80,15162,2147754834,2147423286,2148009124,2147874212,2147645513,2147056374,2148265042,2147197257,28,4,13,49853
1356583646,5809,955.9199829101562000,48.7062416076660160,673.2791137695312000,4.1898159980773930,53.8905906677246100,52,98,85,79,82,15164,2147758061,2147426322,2148010413,2147874130,2147643931,2147060370,2148266486,2147197165,318,4,13,21858
1356587246,5809,980.5499877929688000,49.5170097351074200,675.1948242187500000,4.1264419555664060,53.8052482604980500,53,99,83,78,80,15166,2147757056,2147422299,2148011620,2147869348,2147645595,2147061092,2148267812,2147196809,1299,4,13,22488
1356590846,5806,990.4899902343750000,49.4963111877441400,675.4589843750000000,4.1176948547363280,53.8061599731445300,53,100,86,79,79,15164,2147761179,2147421348,2148011803,2147874642,2147644416,2147056758,2148257252,2147195913,558,4,13,33816
1356594446,5808,984.0100097656250000,49.4923896789550800,676.8366699218750000,4.0720901489257810,53.8293914794921900,53,101,88,80,81,15165,2147758509,2147421074,2148009042,2147871606,2147644379,2147057782,2148265371,2147195017,3075,4,13,3349
1356598046,5810,988.7199707031250000,49.5068283081054700,678.0076293945312000,4.0333099365234375,53.8418083190918000,52,96,88,80,81,15167,2147757632,2147420982,2148010377,2147877366,2147646281,2147053120,2148262619,2147196973,999,4,13,51028
1356601646,5809,1004.3699951171875000,49.4796600341796900,676.7036743164062000,4.0764918327331540,53.8251304626464840,53,98,89,78,81,15162,2147758034,2147425024,2148010697,2147874057,2147644434,2147062482,2148266505,2147194560,3131,4,14,37303
1356605246,5807,991.4400024414062000,49.2876281738281250,677.4688110351562000,4.0511589050292970,53.8587188720703100,52,99,86,79,80,15162,2147759058,2147423149,2148008448,2147873261,2147643721,2147057901,2148270052,2147196928,37,4,13,52954
1356608846,5809,993.0700073242188000,49.2512512207031250,678.1148071289062000,4.0297598838806150,53.8756217956543000,52,100,87,80,81,15167,2147757184,2147423058,2148008512,2147876041,2147648886,2147056009,2148265133,2147197110,2971,4,13,41832
1356612446,5808,996.1500244140625000,49.1548614501953100,678.2860717773438000,4.0240840911865230,53.8887901306152340,53,98,90,79,81,15163,2147758893,2147420653,2148011830,2147877019,2147644150,2147059785,2148266075,2147191332,3311,4,14,15311
1356616046,5807,991.5599975585938000,48.9680480957031250,677.9755859375000000,4.0343699455261230,53.9118804931640600,52,99,89,79,81,15166,2147757357,2147421485,2148010706,2147877092,2147645485,2147054692,2148265508,2147197147,3514,4,14,47602
1356619646,5811,1004.6300048828125000,49.2239189147949200,677.1583251953125000,4.0614409446716310,53.8708496093750000,53,100,85,78,81,15073,2147759725,2147422491,2148011675,2147876297,2147645769,2147060900,2148264384,2147197997,95,4,13,3358
1356623246,5810,1002.9799804687500000,48.9230384826660160,677.0543212890625000,4.0648818016052250,53.9067687988281250,53,99,85,78,82,15071,2147754468,2147420178,2148010779,2147875318,2147645211,2147058998,2148268800,2147199634,154,4,13,29348
1356626846,5810,1004.6599731445312000,48.7720985412597660,676.2769775390625000,4.0906219482421875,53.9185981750488300,53,97,88,79,81,15069,2147758052,2147424246,2148007506,2147872493,2147642925,2147055350,2148265645,2147194715,332,4,13,53904
1356630446,5805,998.2600097656250000,49.0487098693847660,676.8972167968750000,4.0700869560241700,53.8917999267578100,52,99,89,78,81,15069,2147757760,2147422262,2148012169,2147873673,2147643794,2147055378,2148269513,2147196251,298,4,13,43186
1356634046,5808,1003.5900268554688000,48.9177093505859400,676.9398803710938000,4.0686721801757810,53.9055480957031250,52,98,88,78,81,15070,2147755053,2147416576,2148010075,2147875858,2147644278,2147052361,2148261403,2147200713,45,4,13,16535
1356637646,5806,1006.1400146484375000,49.1338615417480500,677.4744262695312000,4.0509719848632810,53.8867683410644500,53,98,88,78,81,15072,2147756946,2147421942,2148008960,2147874441,2147644772,2147056256,2148262884,2147195574,79,4,13,22433
1356641246,5807,1001.6500244140625000,49.0065803527832000,678.4993286132812000,4.0170230865478520,53.9180107116699200,53,98,86,79,80,15068,2147758317,2147421321,2148011154,2147875858,2147647606,2147054774,2148264630,2147195958,3433,4,13,8287
1356644846,5810,998.4600219726562000,49.0624809265136700,679.3040161132812000,3.9903581142425537,53.9178314208984400,53,104,85,78,82,15071,2147760576,2147423661,2148011254,2147874221,2147649051,2147058038,2148264228,2147200329,360,4,13,30861
1356648446,5809,1004.7399902343750000,48.5633888244628900,679.5441284179688000,3.9824008941650390,53.9865989685058600,52,99,90,79,81,15067,2147761005,2147423661,2148012150,2147879835,2147646637,2147050870,2148270372,2147198784,465,4,13,10190
1356652046,5808,1002.3099975585938000,48.9141082763671900,678.7545776367188000,4.0085620880126950,53.9312896728515600,52,96,85,79,81,15067,2147759460,2147423670,2148009188,2147875693,2147644736,2147055533,2148264548,2147197138,131,4,13,49993
1356655646,5810,1001.9699707031250000,49.0515785217285160,679.0087890625000000,4.0001411437988280,53.9127006530761700,53,101,91,80,81,15068,2147758070,2147421522,2148010468,2147875849,2147646692,2147055899,2148265773,2147196379,14,4,13,41345
1356659246,5811,1001.6099853515625000,48.8992500305175800,678.9932250976562000,4.0006561279296875,53.9320297241210940,53,98,88,80,81,15067,2147757979,2147422162,2148009362,2147876251,2147647030,2147058980,2148263716,2147196928,339,4,13,52445
1356662846,5807,1006.5900268554688000,48.6566696166992200,678.2426147460938000,4.0255279541015625,53.9603881835937500,53,97,83,79,82,15037,2147756452,2147422619,2148009188,2147872128,2147645549,2147057344,2148262418,2147201371,3537,4,13,28310
1356666446,5806,1004.5200195312500000,48.5938796997070300,678.0850219726562000,4.0307459831237790,53.9664192199707000,54,99,94,79,82,15035,2147757449,2147425517,2148012772,2147874907,2147643657,2147060544,2148260425,2147198811,643,4,13,18743
1356670046,5810,1008.9500122070312000,48.6255302429199200,676.6212768554688000,4.0792222023010250,53.9455184936523440,52,98,86,80,81,15034,2147756955,2147424676,2148009773,2147880192,2147643858,2147051913,2148263542,2147199725,47,4,13,15993
1356673646,5808,1006.5900268554688000,48.5012893676757800,677.1936035156250000,4.0602698326110840,53.9706306457519500,52,101,84,79,82,15033,2147756964,2147422893,2148010148,2147875474,2147642139,2147057609,2148265051,2147199405,132,4,13,40432
1356677246,5806,1005.5399780273438000,48.4431495666503900,677.4099121093750000,4.0531082153320310,53.9770011901855500,52,101,90,78,80,15035,2147757403,2147420589,2148014866,2147876297,2147646235,2147053842,2148259565,2147196507,521,4,13,49058
1356680846,5809,1004.2999877929688000,48.7630004882812500,678.3878173828125000,4.0207161903381350,53.9462013244628900,53,102,85,79,80,15032,2147761362,2147425545,2148011794,2147873334,2147645366,2147055478,2148260059,2147194742,187,4,13,13351
1356684446,5807,1005.4000244140625000,48.8753890991210940,678.3859863281250000,4.0207748413085940,53.9286689758300800,52,98,86,80,81,15032,2147757787,2147424795,2148009453,2147872941,2147644854,2147058422,2148265097,2147198838,122,4,13,43195
1356688046,5809,1002.8699951171875000,48.6554298400878900,678.4249877929688000,4.0194840431213380,53.9610481262207000,53,99,88,77,81,15033,2147760466,2147425801,2148011803,2147876105,2147643337,2147056201,2148268352,2147197933,391,4,13,62665
1356691646,5811,1005.3800048828125000,49.2154006958007800,678.9276733398438000,4.0028271675109860,53.8897895812988300,53,99,86,79,82,15031,2147761636,2147423734,2148012992,2147875830,2147642688,2147057197,2148259913,2147197632,378,4,13,38962
1356695246,5808,1002.7199707031250000,48.9081115722656250,679.2410888671875000,3.9924430847167970,53.9388809204101560,53,97,88,80,82,15030,2147761755,2147424310,2148012891,2147875200,2147643730,2147061586,2148261796,2147198994,202,4,13,46673
1356698846,5807,993.6099853515625000,49.4139213562011700,680.2368164062500000,3.9594399929046630,53.8829917907714840,52,100,88,79,80,15032,2147761014,2147423744,2148011017,2147874523,2147643629,2147059410,2148263396,2147196461,258,4,13,8888
1356702446,5809,1010.1300048828125000,49.6511192321777340,679.5614013671875000,3.9818270206451416,53.8357315063476560,53,100,87,79,82,15029,2147759844,2147421357,2148013056,2147873737,2147643090,2147056091,2148262774,2147198262,98,4,13,63293
1356706046,5811,1006.6199951171875000,48.7586898803710940,678.8173217773438000,4.0064849853515625,53.9537391662597660,53,98,85,79,80,15026,2147758573,2147423049,2148011675,2147877083,2147644525,2147057718,2148263469,2147196114,262,4,13,54091
1356709646,5807,1014.8699951171875000,48.2622184753418000,678.4138183593750000,4.0198550224304200,54.0150794982910160,52,98,90,79,81,15028,2147757814,2147423990,2148010834,2147872978,2147644790,2147059501,2148261046,2147199396,197,4,13,18944
1356713246,5808,1017.4600219726562000,48.0696105957031250,677.3082275390625000,4.0564770698547360,54.0324401855468750,53,99,87,79,80,15031,2147757467,2147421248,2148011501,2147875300,2147643611,2147050313,2148260388,2147196470,102,4,13,55131
1356716846,5807,1012.5499877929688000,48.3083381652832000,676.8438110351562000,4.0718560218811035,53.9893608093261700,53,100,85,78,81,15029,2147757266,2147425453,2148013028,2147877403,2147640832,2147058011,2148263012,2147196260,658,4,13,36230
1356720446,5808,1022.7600097656250000,48.8932800292968750,676.9425048828125000,4.0685858726501465,53.9110908508300800,53,99,90,79,81,15029,2147755876,2147424521,2148013339,2147871926,2147640813,2147053869,2148263213,2147198884,2716,4,13,53816
1356724046,5807,1020.8400268554688000,48.6290702819824200,676.6666870117188000,4.0777168273925780,53.9421195983886700,54,99,85,79,80,15025,2147757065,2147425993,2148009764,2147875245,2147645366,2147057197,2148263341,2147197531,3193,4,13,43411
1356724855,5809,1017.6799926757812000,48.6056900024414060,676.2512817382812000,4.0914711952209470,53.9411506652832000,53,96,88,79,82,15148,2147756416,2147423396,2148007826,2147872822,2147643200,2147057718,2148263680,2147200045,3301,4,13,49
